| time (UTC) | temp F | wind direction | speed MPH | gust MPH | rain 1hr in | rain 24hr in | rain mn in | humidity % | barometer mb |
| 20260509002017 | 78 | 270 | 2.0 | 4.0 | 0.00 | 0.00 | 0.00 | 63 | 1009.4 |
| 20260509001018 | 78 | 270 | 2.0 | 4.0 | 0.00 | 0.00 | 0.00 | 63 | 1009.4 |
| 20260509000018 | 78 | 135 | 2.0 | 3.0 | 0.00 | 0.00 | 0.00 | 63 | 1009.3 |
| 20260508235018 | 78 | 203 | 3.0 | 6.0 | 0.00 | 0.00 | 0.00 | 62 | 1009.4 |
| 20260508234018 | 80 | 270 | 2.0 | 6.0 | 0.00 | 0.00 | 0.00 | 58 | 1009.5 |
| 20260508233018 | 79 | 158 | 2.0 | 3.0 | 0.00 | 0.00 | 0.00 | 61 | 1009.4 |
| 20260508232018 | 80 | 225 | 2.0 | 5.0 | 0.00 | 0.00 | 0.00 | 61 | 1009.4 |
| 20260508231018 | 80 | 225 | 3.0 | 6.0 | 0.00 | 0.00 | 0.00 | 60 | 1009.4 |
| 20260508230018 | 79 | 203 | 2.0 | 6.0 | 0.00 | 0.00 | 0.00 | 62 | 1009.3 |
| 20260508224017 | 79 | 158 | 3.0 | 7.0 | 0.00 | 0.00 | 0.00 | 60 | 1009.2 |
| 20260508223018 | 79 | 180 | 5.0 | 9.0 | 0.00 | 0.00 | 0.00 | 62 | 1009.4 |
| 20260508222017 | 79 | 180 | 5.0 | 10.0 | 0.00 | 0.00 | 0.00 | 61 | 1009.3 |
| 20260508221018 | 79 | 225 | 4.0 | 9.0 | 0.00 | 0.00 | 0.00 | 61 | 1009.4 |
| 20260508220017 | 79 | 158 | 4.0 | 10.0 | 0.00 | 0.01 | 0.00 | 63 | 1009.6 |
| 20260508215018 | 79 | 203 | 5.0 | 10.0 | 0.00 | 0.01 | 0.00 | 62 | 1009.8 |
| 20260508214022 | 79 | 203 | 4.0 | 10.0 | 0.00 | 0.01 | 0.00 | 64 | 1009.8 |
| 20260508213021 | 78 | 225 | 5.0 | 10.0 | 0.00 | 0.01 | 0.00 | 64 | 1009.8 |
| 20260508212021 | 78 | 203 | 4.0 | 9.0 | 0.00 | 0.01 | 0.00 | 67 | 1009.8 |
| 20260508211018 | 77 | 203 | 3.0 | 7.0 | 0.00 | 0.01 | 0.00 | 67 | 1010.2 |
| 20260508210017 | 76 | 203 | 5.0 | 11.0 | 0.00 | 0.01 | 0.00 | 67 | 1010.2 |
| 20260508205018 | 76 | 203 | 6.0 | 10.0 | 0.00 | 0.01 | 0.00 | 68 | 1010.4 |
| 20260508204018 | 76 | 203 | 6.0 | 13.0 | 0.00 | 0.01 | 0.00 | 68 | 1010.4 |
| 20260508203018 | 75 | 203 | 4.0 | 9.0 | 0.00 | 0.01 | 0.00 | 70 | 1010.7 |
| 20260508202018 | 75 | 248 | 5.0 | 9.0 | 0.00 | 0.01 | 0.00 | 70 | 1010.9 |
| 20260508201018 | 74 | 203 | 5.0 | 9.0 | 0.00 | 0.01 | 0.00 | 73 | 1011.0 |
| 20260508200018 | 73 | 270 | 3.0 | 8.0 | 0.00 | 0.01 | 0.00 | 74 | 1011.2 |
| 20260508195018 | 73 | 270 | 3.0 | 7.0 | 0.00 | 0.01 | 0.00 | 75 | 1011.4 |
| 20260508194018 | 72 | 248 | 3.0 | 6.0 | 0.00 | 0.01 | 0.00 | 74 | 1011.5 |
| 20260508193018 | 72 | 270 | 4.0 | 8.0 | 0.00 | 0.01 | 0.00 | 75 | 1011.4 |
| 20260508192018 | 73 | 225 | 2.0 | 4.0 | 0.00 | 0.01 | 0.00 | 74 | 1011.6 |
| 20260508191018 | 72 | 270 | 2.0 | 4.0 | 0.00 | 0.01 | 0.00 | 75 | 1011.7 |
| 20260508190017 | 71 | 270 | 1.0 | 7.0 | 0.00 | 0.01 | 0.00 | 77 | 1011.8 |
| 20260508185018 | 71 | 270 | 2.0 | 8.0 | 0.00 | 0.01 | 0.00 | 76 | 1011.9 |
| 20260508184018 | 71 | 293 | 1.0 | 2.0 | 0.00 | 0.01 | 0.00 | 76 | 1011.9 |
| 20260508183018 | 71 | 293 | 2.0 | 3.0 | 0.00 | 0.01 | 0.00 | 76 | 1012.0 |
| 20260508182018 | 72 | 0.0 | 2.0 | 0.00 | 0.01 | 0.00 | 75 | 1012.3 | |
| 20260508181018 | 72 | 0.0 | 2.0 | 0.00 | 0.01 | 0.00 | 75 | 1012.4 | |
| 20260508180018 | 72 | 23 | 1.0 | 3.0 | 0.00 | 0.01 | 0.00 | 75 | 1012.5 |
| 20260508175018 | 71 | 0.0 | 1.0 | 0.00 | 0.01 | 0.00 | 76 | 1012.6 | |
| 20260508174017 | 70 | 0.0 | 2.0 | 0.00 | 0.01 | 0.00 | 76 | 1012.8 | |
| 20260508173018 | 70 | 0.0 | 3.0 | 0.00 | 0.01 | 0.00 | 76 | 1012.9 | |
| 20260508172017 | 70 | 0.0 | 0.0 | 0.00 | 0.01 | 0.00 | 76 | 1013.0 | |
| 20260508171018 | 70 | 293 | 1.0 | 3.0 | 0.00 | 0.01 | 0.00 | 76 | 1013.0 |
| 20260508170018 | 70 | 270 | 1.0 | 3.0 | 0.00 | 0.01 | 0.00 | 76 | 1013.2 |
| 20260508165018 | 69 | 248 | 2.0 | 6.0 | 0.00 | 0.01 | 0.00 | 76 | 1013.2 |
| 20260508164018 | 70 | 203 | 1.0 | 3.0 | 0.00 | 0.01 | 0.00 | 76 | 1013.5 |
| 20260508163018 | 68 | 270 | 2.0 | 4.0 | 0.00 | 0.01 | 0.00 | 78 | 1013.5 |
| 20260508162018 | 67 | 270 | 1.0 | 3.0 | 0.00 | 0.01 | 0.00 | 78 | 1013.6 |
| 20260508161018 | 67 | 0.0 | 2.0 | 0.00 | 0.01 | 0.00 | 79 | 1013.8 | |
| 20260508160018 | 66 | 158 | 1.0 | 4.0 | 0.00 | 0.01 | 0.00 | 80 | 1013.7 |
| 20260508155018 | 66 | 113 | 1.0 | 4.0 | 0.00 | 0.01 | 0.00 | 79 | 1013.8 |
| 20260508154018 | 65 | 90 | 1.0 | 3.0 | 0.00 | 0.01 | 0.00 | 80 | 1013.9 |
| 20260508153018 | 65 | 135 | 2.0 | 6.0 | 0.00 | 0.01 | 0.00 | 80 | 1014.0 |
| 20260508152018 | 64 | 0.0 | 2.0 | 0.00 | 0.01 | 0.00 | 81 | 1013.7 | |
| 20260508151018 | 63 | 0.0 | 2.0 | 0.00 | 0.01 | 0.00 | 83 | 1014.0 | |
| 20260508150018 | 63 | 113 | 1.0 | 4.0 | 0.00 | 0.01 | 0.00 | 84 | 1014.2 |
| 20260508145018 | 62 | 68 | 1.0 | 2.0 | 0.00 | 0.01 | 0.00 | 86 | 1014.1 |
| 20260508144018 | 61 | 68 | 1.0 | 3.0 | 0.00 | 0.01 | 0.00 | 86 | 1014.3 |
| 20260508143018 | 61 | 113 | 1.0 | 2.0 | 0.00 | 0.01 | 0.00 | 86 | 1014.3 |
| 20260508142018 | 60 | 68 | 3.0 | 5.0 | 0.00 | 0.01 | 0.00 | 87 | 1014.3 |
| 20260508141018 | 60 | 68 | 3.0 | 7.0 | 0.00 | 0.01 | 0.00 | 87 | 1014.6 |
| 20260508140018 | 60 | 90 | 2.0 | 5.0 | 0.00 | 0.01 | 0.00 | 87 | 1014.7 |
| 20260508135018 | 59 | 68 | 3.0 | 6.0 | 0.00 | 0.01 | 0.00 | 87 | 1014.6 |
| 20260508134018 | 60 | 90 | 2.0 | 4.0 | 0.00 | 0.01 | 0.00 | 86 | 1014.5 |
| 20260508133018 | 60 | 113 | 2.0 | 4.0 | 0.00 | 0.01 | 0.00 | 87 | 1014.6 |
| 20260508132018 | 59 | 45 | 2.0 | 5.0 | 0.00 | 0.01 | 0.00 | 87 | 1014.3 |
| 20260508131018 | 59 | 45 | 4.0 | 8.0 | 0.00 | 0.01 | 0.00 | 88 | 1014.1 |
| 20260508130018 | 59 | 68 | 5.0 | 8.0 | 0.00 | 0.01 | 0.00 | 88 | 1014.1 |
| 20260508125018 | 59 | 90 | 2.0 | 3.0 | 0.00 | 0.01 | 0.00 | 88 | 1014.1 |
| 20260508124018 | 59 | 68 | 4.0 | 7.0 | 0.00 | 0.01 | 0.00 | 88 | 1014.3 |
| 20260508123018 | 59 | 68 | 4.0 | 8.0 | 0.00 | 0.01 | 0.00 | 88 | 1014.3 |
| 20260508122018 | 59 | 68 | 4.0 | 5.0 | 0.00 | 0.01 | 0.00 | 87 | 1014.2 |
| 20260508121018 | 59 | 68 | 4.0 | 7.0 | 0.00 | 0.01 | 0.00 | 87 | 1014.2 |
| 20260508120018 | 59 | 68 | 3.0 | 4.0 | 0.00 | 0.01 | 0.00 | 87 | 1014.4 |
| 20260508115018 | 59 | 68 | 3.0 | 5.0 | 0.00 | 0.01 | 0.00 | 87 | 1014.4 |
| 20260508114018 | 59 | 68 | 3.0 | 5.0 | 0.00 | 0.01 | 0.00 | 86 | 1014.3 |
| 20260508113018 | 59 | 68 | 4.0 | 5.0 | 0.00 | 0.01 | 0.00 | 86 | 1014.4 |
| 20260508112018 | 59 | 68 | 3.0 | 5.0 | 0.00 | 0.01 | 0.00 | 86 | 1014.5 |
| 20260508111018 | 59 | 68 | 3.0 | 5.0 | 0.00 | 0.01 | 0.00 | 86 | 1014.5 |
| 20260508110018 | 59 | 68 | 3.0 | 5.0 | 0.00 | 0.01 | 0.00 | 87 | 1014.4 |
| 20260508105018 | 59 | 68 | 3.0 | 4.0 | 0.00 | 0.01 | 0.00 | 87 | 1014.5 |
| 20260508104018 | 59 | 0.0 | 0.0 | 0.00 | 0.01 | 0.00 | 86 | 1014.4 | |
| 20260508103018 | 59 | 0.0 | 0.0 | 0.00 | 0.01 | 0.00 | 86 | 1014.3 | |
| 20260508102018 | 59 | 0.0 | 0.0 | 0.00 | 0.01 | 0.00 | 87 | 1014.2 | |
| 20260508101018 | 58 | 0.0 | 0.0 | 0.00 | 0.01 | 0.00 | 88 | 1014.3 | |
| 20260508100018 | 58 | 0.0 | 0.0 | 0.00 | 0.01 | 0.00 | 88 | 1014.2 | |
| 20260508095018 | 58 | 0.0 | 0.0 | 0.00 | 0.01 | 0.00 | 88 | 1014.2 | |
| 20260508094018 | 58 | 158 | 1.0 | 2.0 | 0.00 | 0.01 | 0.00 | 87 | 1014.0 |
| 20260508093018 | 58 | 158 | 2.0 | 5.0 | 0.00 | 0.01 | 0.00 | 88 | 1014.0 |
| 20260508092018 | 58 | 0.0 | 0.0 | 0.00 | 0.01 | 0.00 | 88 | 1013.9 | |
| 20260508091018 | 58 | 0.0 | 0.0 | 0.00 | 0.01 | 0.00 | 89 | 1013.9 | |
| 20260508090022 | 57 | 0.0 | 1.0 | 0.00 | 0.01 | 0.00 | 90 | 1014.1 | |
| 20260508085022 | 57 | 158 | 2.0 | 4.0 | 0.00 | 0.01 | 0.00 | 90 | 1014.1 |
| 20260508084021 | 57 | 158 | 2.0 | 4.0 | 0.00 | 0.01 | 0.00 | 89 | 1014.1 |
| 20260508083018 | 57 | 180 | 1.0 | 3.0 | 0.00 | 0.01 | 0.00 | 89 | 1014.3 |
| 20260508082018 | 57 | 158 | 1.0 | 4.0 | 0.00 | 0.01 | 0.00 | 88 | 1014.3 |
| 20260508081018 | 58 | 135 | 2.0 | 3.0 | 0.00 | 0.01 | 0.00 | 88 | 1014.4 |
| 20260508080018 | 57 | 135 | 3.0 | 7.0 | 0.00 | 0.01 | 0.00 | 88 | 1014.7 |
| 20260508075018 | 58 | 158 | 4.0 | 7.0 | 0.00 | 0.01 | 0.00 | 88 | 1015.0 |
| 20260508074018 | 58 | 135 | 4.0 | 7.0 | 0.00 | 0.01 | 0.00 | 87 | 1014.7 |
| 20260508073018 | 58 | 135 | 6.0 | 9.0 | 0.00 | 0.01 | 0.00 | 86 | 1015.0 |
| 20260508072018 | 58 | 135 | 6.0 | 9.0 | 0.00 | 0.01 | 0.00 | 85 | 1015.3 |
| 20260508071018 | 58 | 113 | 5.0 | 8.0 | 0.00 | 0.01 | 0.00 | 85 | 1015.5 |
| 20260508070018 | 58 | 90 | 2.0 | 2.0 | 0.00 | 0.01 | 0.00 | 84 | 1015.5 |
| 20260508065018 | 58 | 90 | 3.0 | 5.0 | 0.00 | 0.01 | 0.00 | 83 | 1015.6 |
| 20260508064018 | 58 | 68 | 2.0 | 5.0 | 0.00 | 0.01 | 0.00 | 83 | 1015.9 |
| 20260508063018 | 58 | 23 | 1.0 | 2.0 | 0.00 | 0.01 | 0.00 | 83 | 1016.1 |
| 20260508062018 | 58 | 23 | 1.0 | 2.0 | 0.00 | 0.01 | 0.00 | 84 | 1016.4 |
| 20260508061018 | 58 | 23 | 1.0 | 2.0 | 0.00 | 0.01 | 0.00 | 84 | 1016.3 |
| 20260508060018 | 58 | 23 | 1.0 | 3.0 | 0.00 | 0.01 | 0.00 | 84 | 1016.3 |
| 20260508055018 | 58 | 0.0 | 2.0 | 0.00 | 0.01 | 0.00 | 85 | 1016.3 | |
| 20260508054018 | 58 | 0.0 | 2.0 | 0.00 | 0.01 | 0.00 | 85 | 1016.1 | |
| 20260508053018 | 58 | 68 | 1.0 | 2.0 | 0.00 | 0.01 | 0.00 | 85 | 1015.9 |
| 20260508052018 | 58 | 113 | 1.0 | 3.0 | 0.00 | 0.01 | 0.00 | 85 | 1015.7 |
| 20260508051018 | 58 | 113 | 2.0 | 3.0 | 0.00 | 0.01 | 0.00 | 84 | 1015.8 |
| 20260508050018 | 58 | 90 | 1.0 | 2.0 | 0.00 | 0.01 | 0.01 | 85 | 1015.9 |
| 20260508045018 | 58 | 113 | 2.0 | 3.0 | 0.00 | 0.01 | 0.01 | 84 | 1016.1 |
| 20260508044018 | 58 | 113 | 2.0 | 3.0 | 0.00 | 0.01 | 0.01 | 84 | 1016.1 |
| 20260508043018 | 58 | 113 | 1.0 | 3.0 | 0.00 | 0.01 | 0.01 | 84 | 1016.2 |
| 20260508042018 | 58 | 0.0 | 0.0 | 0.00 | 0.01 | 0.01 | 84 | 1016.3 | |
| 20260508041018 | 58 | 0.0 | 2.0 | 0.00 | 0.01 | 0.01 | 84 | 1016.3 | |
| 20260508040018 | 57 | 68 | 2.0 | 4.0 | 0.00 | 0.01 | 0.01 | 84 | 1016.2 |
| 20260508035018 | 58 | 90 | 1.0 | 3.0 | 0.00 | 0.01 | 0.01 | 84 | 1016.1 |
| 20260508034018 | 58 | 0.0 | 2.0 | 0.00 | 0.01 | 0.01 | 84 | 1016.4 | |
| 20260508033018 | 58 | 0.0 | 2.0 | 0.00 | 0.01 | 0.01 | 84 | 1016.3 | |
| 20260508032018 | 58 | 90 | 1.0 | 2.0 | 0.00 | 0.01 | 0.01 | 84 | 1016.0 |
| 20260508031018 | 58 | 90 | 1.0 | 2.0 | 0.00 | 0.01 | 0.01 | 84 | 1015.9 |
| 20260508030018 | 57 | 68 | 2.0 | 4.0 | 0.00 | 0.01 | 0.01 | 83 | 1016.0 |
| 20260508025018 | 58 | 90 | 1.0 | 3.0 | 0.00 | 0.01 | 0.01 | 84 | 1016.1 |
| 20260508024018 | 57 | 68 | 1.0 | 5.0 | 0.00 | 0.01 | 0.01 | 84 | 1016.0 |
| 20260508023018 | 57 | 0.0 | 2.0 | 0.00 | 0.01 | 0.01 | 84 | 1016.0 | |
| 20260508022018 | 57 | 68 | 2.0 | 3.0 | 0.00 | 0.01 | 0.01 | 84 | 1015.8 |
| 20260508021018 | 58 | 90 | 1.0 | 2.0 | 0.00 | 0.01 | 0.01 | 84 | 1015.8 |
| 20260508020018 | 57 | 113 | 3.0 | 4.0 | 0.00 | 0.01 | 0.01 | 83 | 1016.0 |
| 20260508015018 | 57 | 113 | 2.0 | 4.0 | 0.00 | 0.01 | 0.01 | 83 | 1015.4 |
| 20260508014018 | 58 | 113 | 4.0 | 5.0 | 0.00 | 0.01 | 0.01 | 83 | 1015.2 |
| 20260508013018 | 58 | 90 | 2.0 | 3.0 | 0.00 | 0.01 | 0.01 | 82 | 1014.6 |
| 20260508012018 | 58 | 113 | 3.0 | 6.0 | 0.00 | 0.01 | 0.01 | 82 | 1014.8 |
| 20260508011018 | 58 | 135 | 6.0 | 8.0 | 0.00 | 0.01 | 0.01 | 83 | 1014.9 |
| 20260508010018 | 58 | 135 | 5.0 | 8.0 | 0.00 | 0.01 | 0.01 | 83 | 1015.1 |
| 20260508005018 | 58 | 135 | 5.0 | 7.0 | 0.00 | 0.01 | 0.01 | 83 | 1015.0 |
| 20260508004018 | 58 | 113 | 4.0 | 7.0 | 0.00 | 0.01 | 0.01 | 82 | 1014.7 |
| 20260508003018 | 58 | 135 | 4.0 | 7.0 | 0.00 | 0.01 | 0.01 | 83 | 1015.1 |